Wind_Speed
57 57 58 58 58 58 57 57 57 57 57 57 57 58 57 56 55 55 55 55 56 56 56 56 57 58 59 59 60 60 61 62 62 62 62 63 63 64
54 54 55 56 56 55 55 55 56 57 57 57 57 57 57 57 57 59 58 56 57 57 57 58 58 59 60 60 61 61 62 62 63 63 64 64 65 66
48 49 49 50 51 52 53 53 55 55 56 56 57 56 56 57 59 59 59 58 58 59 60 60 60 60 60 61 61 62 62 63 64 64 65 65 67 68
42 42 43 44 45 46 48 49 49 50 51 53 54 55 56 57 57 58 59 60 59 59 60 60 60 60 61 61 62 62 62 63 63 64 65 67 68 69
36 36 36 38 39 40 42 43 44 46 48 49 51 54 54 55 56 57 57 58 58 59 59 59 60 60 60 60 61 61 62 63 64 65 66 67 69 70
30 31 32 33 34 35 36 38 39 41 43 46 48 50 51 53 54 55 56 57 57 58 58 58 58 59 60 60 61 61 62 63 63 64 65 66 67 68
25 26 27 29 29 31 32 33 36 38 41 43 46 49 50 51 52 53 55 56 56 57 57 58 58 59 60 61 61 61 61 61 61 61 61 61 62 63
23 23 24 24 26 27 30 32 34 37 39 42 45 46 48 49 50 52 54 55 55 56 56 57 58 58 59 59 58 58 58 57 56 55 55 55 56 57
19 20 21 23 24 25 28 30 33 36 38 41 43 44 46 47 50 51 53 54 54 55 54 55 56 56 56 55 55 54 54 52 50 49 48 48 48 48
20 20 21 22 24 26 29 31 33 36 38 41 42 44 46 48 49 51 52 53 54 54 53 52 52 52 52 52 52 51 49 46 45 44 44 44 43 44
20 21 23 24 26 28 30 32 35 37 39 42 44 46 48 49 50 52 52 52 52 53 52 49 48 47 47 48 48 47 45 44 43 42 42 41 40 40
23 25 27 28 30 31 33 35 38 40 42 44 46 48 49 50 51 51 51 51 51 50 49 46 45 44 42 44 45 45 43 42 42 41 40 39 38 37
26 28 29 31 33 35 37 39 40 42 44 46 47 49 50 51 52 52 51 50 49 47 45 43 42 42 40 38 40 41 41 40 40 39 38 37 37 36
29 31 32 34 35 37 39 41 43 45 46 48 49 50 51 52 51 50 49 48 46 44 42 40 38 38 36 35 35 37 38 38 36 36 36 36 36 35
31 33 35 36 38 40 42 43 45 46 48 49 49 50 50 49 48 46 44 42 41 40 38 37 36 35 35 34 33 34 34 34 34 33 33 34 33 32
34 36 37 39 40 42 44 45 47 48 48 48 48 48 47 45 42 40 39 38 37 37 37 36 34 33 33 33 33 32 32 31 31 31 31 31 31 29
36 38 40 41 42 44 45 47 48 48 48 47 47 46 44 42 40 38 38 37 35 34 35 34 33 32 33 33 32 32 31 30 30 29 28 28 29 28
38 40 41 42 43 45 47 48 48 47 47 47 45 43 41 40 38 37 36 34 33 32 32 33 32 31 31 32 33 31 30 29 29 29 28 26 26 27
40 41 42 44 45 47 48 48 48 47 46 45 43 41 40 38 37 35 34 32 31 31 32 32 31 29 28 28 30 33 30 28 28 28 28 27 25 25
41 42 44 45 47 48 49 48 47 46 45 44 42 40 39 37 35 34 32 31 30 30 30 31 31 30 29 28 27 30 32 29 28 28 27 27 26 25
42 44 45 46 48 49 49 47 46 45 44 43 41 40 38 37 35 33 32 31 31 30 29 30 31 31 30 28 27 27 30 32 30 28 27 26 25 25
44 45 46 47 49 49 48 47 46 45 43 42 40 39 37 36 34 33 32 31 30 30 29 30 30 30 30 29 28 27 28 30 31 30 28 26 24 23
45 46 47 48 49 48 47 46 45 44 43 41 39 38 36 35 33 32 31 31 30 30 30 29 29 29 30 30 29 28 28 28 28 28 29 28 26 24
Wind_Direction
278 276 273 272 270 268 267 266 267 269 270 271 273 276 278 279 279 281 282 282 284 284 284 284 284 284 284 283 282 282 281 280 280 279 277 276 275 273
277 275 273 272 270 267 265 265 265 267 269 271 272 275 277 278 280 283 284 284 284 284 285 285 285 285 285 284 283 282 282 281 280 279 278 277 276 275
279 276 274 272 270 267 265 265 265 266 269 269 272 274 276 278 280 281 283 284 285 285 286 286 286 286 285 284 284 284 283 282 281 280 279 278 277 276
280 276 274 272 269 268 267 266 266 268 269 270 272 275 277 280 281 282 283 285 286 286 286 286 286 286 285 285 285 285 284 283 282 282 281 280 279 277
281 276 275 274 271 269 268 267 267 269 270 271 273 276 278 280 282 283 286 286 287 287 287 287 287 288 287 287 287 286 285 284 284 283 282 281 280 278
285 281 278 276 273 270 269 269 270 271 273 274 276 279 280 282 283 285 286 287 288 289 289 289 289 289 288 288 288 287 286 285 284 283 282 281 280 279
293 287 281 278 276 273 273 273 273 275 277 278 279 282 283 284 285 286 288 290 290 291 291 290 290 290 290 289 288 288 288 287 286 285 284 283 282 280
297 293 287 283 283 280 279 278 279 280 281 281 283 285 286 287 288 290 291 291 291 291 291 291 291 291 291 291 290 290 289 289 288 287 286 285 283 282
305 299 295 293 292 289 286 285 285 285 286 287 289 289 290 291 292 293 293 292 292 292 292 293 293 293 292 291 291 292 292 291 290 288 287 286 286 285
308 304 303 301 299 296 293 293 293 292 292 292 292 293 294 295 295 295 294 294 293 293 294 294 293 294 293 293 293 293 293 292 291 289 289 288 287 286
312 309 307 306 304 303 301 299 298 297 296 297 297 297 297 296 296 296 296 295 295 295 295 294 294 294 294 294 295 295 294 293 292 291 290 289 288 287
312 311 310 309 307 306 304 303 302 301 301 300 299 299 299 299 299 298 297 296 296 295 295 295 294 294 294 294 295 296 296 295 295 294 293 292 291 290
315 314 312 311 310 309 308 307 306 305 304 303 303 302 302 302 301 300 298 297 296 295 294 294 295 295 294 292 293 295 295 296 297 296 295 295 294 293
315 315 314 313 312 311 311 310 309 308 307 306 305 305 304 303 302 300 298 298 297 295 295 295 295 294 293 293 292 293 295 297 296 296 296 296 295 295
316 315 315 314 314 313 313 312 312 310 309 308 308 307 306 305 303 301 301 300 298 297 297 297 297 296 295 295 294 294 295 297 298 297 297 297 295 294
316 316 316 316 315 315 315 315 314 312 311 310 310 309 308 307 305 304 302 301 300 299 299 299 299 298 298 298 298 298 298 298 298 298 299 298 296 294
317 317 317 317 317 316 316 316 315 314 313 312 311 311 310 308 306 304 303 301 300 299 300 301 302 302 302 301 301 300 301 301 301 301 301 300 297 295
318 318 318 318 318 318 317 317 316 315 314 314 313 312 311 309 306 305 304 302 301 300 300 300 301 303 303 304 303 303 303 303 303 304 304 302 299 296
318 318 318 318 318 318 318 318 317 316 316 315 313 312 311 310 307 305 304 303 302 302 301 301 302 302 302 302 302 302 303 302 303 303 304 304 300 296
318 319 319 319 319 319 319 319 318 317 316 315 314 312 311 310 308 306 304 303 303 303 303 303 303 304 304 303 302 302 304 304 303 302 302 303 301 298
318 319 320 320 320 320 320 319 318 318 317 315 314 313 311 309 307 305 304 302 302 302 302 302 303 304 305 305 304 304 305 306 306 304 302 301 299 297
319 319 320 320 321 321 321 320 319 318 317 316 314 313 311 309 306 305 303 302 302 301 302 302 303 304 305 306 305 305 304 305 307 307 304 303 301 297
319 320 320 321 322 322 321 320 319 319 318 316 314 313 311 309 307 305 303 302 301 301 302 303 303 304 305 306 306 305 304 304 305 305 304 304 305 301
Height
5675 5673 5671 5671 5671 5672 5673 5674 5676 5676 5678 5678 5678 5677 5675 5674 5673 5671 5670 5668 5666 5665 5663 5661 5659 5657 5655 5654 5652 5650 5649 5647 5645 5644 5643 5642 5641 5640
5659 5658 5656 5656 5656 5656 5657 5659 5661 5662 5662 5664 5663 5663 5661 5660 5658 5656 5654 5653 5651 5649 5647 5645 5643 5641 5638 5636 5634 5632 5630 5628 5626 5624 5622 5621 5620 5619
5644 5643 5642 5642 5642 5643 5644 5645 5647 5648 5648 5649 5649 5648 5647 5646 5644 5642 5640 5638 5635 5633 5631 5629 5626 5623 5621 5618 5616 5613 5611 5608 5606 5603 5601 5599 5597 5596
5631 5630 5630 5630 5630 5630 5631 5633 5634 5635 5636 5636 5636 5635 5634 5632 5630 5627 5625 5623 5620 5617 5615 5612 5609 5606 5603 5600 5597 5594 5591 5588 5585 5582 5579 5577 5574 5571
5621 5620 5620 5619 5619 5620 5621 5622 5623 5623 5624 5624 5623 5622 5620 5618 5616 5614 5610 5607 5604 5601 5598 5594 5591 5587 5584 5581 5577 5574 5571 5568 5565 5561 5557 5553 5550 5546
5614 5612 5612 5611 5611 5611 5612 5612 5613 5613 5613 5612 5611 5610 5608 5605 5603 5600 5596 5592 5588 5585 5581 5577 5573 5569 5566 5562 5558 5555 5551 5547 5543 5539 5535 5531 5526 5523
5607 5606 5605 5605 5604 5604 5604 5604 5604 5603 5602 5601 5600 5598 5595 5592 5589 5585 5581 5577 5572 5569 5565 5560 5556 5552 5547 5542 5538 5534 5531 5527 5522 5518 5513 5509 5504 5500
5603 5601 5600 5599 5598 5598 5597 5596 5595 5594 5593 5591 5589 5585 5582 5578 5575 5570 5566 5562 5556 5553 5549 5543 5539 5533 5528 5523 5519 5515 5511 5507 5503 5498 5494 5489 5484 5480
5599 5597 5596 5594 5593 5592 5590 5589 5587 5585 5583 5580 5577 5573 5569 5565 5561 5556 5551 5546 5541 5537 5533 5527 5521 5516 5510 5504 5500 5496 5492 5488 5484 5480 5476 5471 5467 5462
5596 5594 5592 5590 5588 5586 5584 5581 5579 5576 5573 5570 5566 5561 5557 5552 5547 5542 5536 5531 5525 5520 5517 5512 5505 5500 5493 5487 5483 5479 5476 5472 5468 5464 5460 5456 5452 5448
5593 5590 5588 5585 5582 5579 5577 5574 5570 5567 5562 5558 5553 5548 5543 5538 5532 5527 5521 5516 5510 5503 5500 5496 5491 5486 5479 5472 5467 5464 5460 5457 5453 5450 5445 5442 5438 5434
5589 5586 5582 5579 5575 5572 5568 5565 5560 5556 5551 5546 5541 5535 5529 5523 5517 5511 5505 5500 5494 5489 5484 5481 5476 5472 5469 5461 5454 5450 5446 5442 5439 5435 5431 5427 5424 5421
5584 5580 5576 5572 5568 5564 5559 5555 5550 5544 5539 5533 5527 5521 5514 5508 5502 5495 5490 5484 5479 5474 5470 5467 5462 5457 5454 5452 5444 5438 5435 5431 5427 5422 5418 5415 5411 5408
5578 5573 5569 5564 5559 5555 5549 5544 5538 5532 5526 5520 5513 5507 5500 5493 5486 5480 5474 5469 5463 5459 5455 5453 5450 5446 5442 5438 5435 5429 5424 5420 5416 5412 5407 5403 5399 5395
5571 5566 5561 5556 5551 5545 5539 5533 5527 5520 5513 5507 5500 5493 5485 5478 5472 5465 5460 5455 5450 5446 5443 5439 5437 5433 5430 5427 5423 5419 5415 5410 5405 5402 5397 5393 5389 5385
5563 5558 5553 5547 5541 5535 5528 5522 5515 5508 5501 5494 5486 5479 5472 5465 5459 5453 5448 5443 5439 5434 5431 5428 5425 5422 5418 5415 5411 5407 5403 5400 5396 5392 5388 5383 5379 5375
5555 5550 5544 5538 5531 5525 5518 5511 5503 5496 5489 5481 5474 5467 5460 5453 5447 5442 5437 5433 5429 5425 5420 5417 5414 5411 5407 5403 5400 5396 5393 5389 5385 5382 5378 5374 5369 5365
5547 5541 5535 5528 5522 5515 5507 5499 5492 5484 5477 5469 5462 5455 5448 5442 5436 5430 5426 5422 5418 5415 5411 5407 5404 5401 5398 5393 5389 5386 5383 5379 5376 5372 5368 5365 5362 5357
5538 5532 5525 5519 5512 5504 5496 5488 5480 5473 5465 5457 5450 5444 5437 5431 5425 5420 5416 5412 5409 5405 5401 5397 5394 5392 5390 5387 5382 5376 5373 5371 5367 5363 5359 5356 5353 5349
5529 5522 5515 5508 5501 5493 5485 5477 5469 5461 5454 5446 5440 5433 5427 5421 5416 5411 5406 5403 5400 5396 5393 5388 5385 5382 5379 5377 5374 5369 5363 5360 5358 5355 5351 5347 5344 5340
5519 5512 5505 5498 5490 5482 5474 5466 5458 5450 5443 5436 5429 5423 5417 5412 5406 5402 5398 5394 5391 5388 5384 5381 5376 5373 5370 5367 5365 5361 5355 5350 5347 5344 5341 5338 5336 5332
5509 5502 5495 5487 5479 5471 5463 5455 5447 5440 5433 5426 5419 5413 5407 5402 5397 5393 5389 5385 5382 5379 5376 5372 5369 5365 5361 5358 5355 5352 5348 5343 5338 5333 5330 5328 5325 5324
5500 5492 5485 5477 5469 5460 5452 5444 5437 5429 5422 5416 5409 5403 5397 5392 5388 5384 5380 5376 5373 5370 5367 5364 5360 5356 5352 5349 5345 5342 5339 5335 5331 5327 5322 5318 5316 5314